PORT ANGELES, WA current weather conditions

sailwx.info

Wind from 160 at 3 knots

Air temperature 7.0° C
Visibility: greater than 2.2 NM
Dewpoint 6.0° C
Present weather: Light rain. Mist.

Last reported at 2019-Dec-12 16:55 UTC.
Time now 2019-Dec-12 18:22 UTC

Location: N 48°07' W 123°30'.
View on Google Maps.

See reports from other nearby stations

  
Tides and Currents Weather Stations Pressure Air Temp Water Temp Dewpoint Dewpoint Depression Visibility Wind Speed Wind Dir Waves Ship Positions
date/time (UTC)wind fromknots sea level pressurealtimeterstation pressurevisibilityair tempwater tempwave heightnotes
2019-Dec-12 16:55 160 3 2.2 7.0 Light rain. Mist.
2019-Dec-12 16:45 160 4 2.6 7.0 Rain. Mist.
2019-Dec-12 16:35 220 6 2.2 7.0 Rain. Mist.
2019-Dec-12 16:30 220 6 2.6 7.0 Rain. Mist.
2019-Dec-12 16:25 250 5 3.0 7.0 Rain. Mist.
2019-Dec-12 16:10 220 4 4.3 7.0 Light rain. Mist.
2019-Dec-12 16:05 220 5 4.3 7.0 Light rain. Mist.
2019-Dec-12 16:00 250 6 4.3 7.0 Light rain. Mist.
2019-Dec-12 15:55 220 3 5.2 7.0 Light rain. Mist.
2019-Dec-12 15:53 5.2 6.7 Light rain. Mist.
2019-Dec-12 15:50 5.2 7.0 Light rain. Mist.
2019-Dec-12 15:40 170 5 7.0 7.0 Light rain.
2019-Dec-12 15:35 160 3 7.8 7.0 Light rain.
2019-Dec-12 15:30 200 5 8.7 7.0 Light rain.
2019-Dec-12 15:25 200 3 7.8 7.0 Light rain.
2019-Dec-12 15:20 230 6 6.1 7.0 Light rain.
2019-Dec-12 15:15 220 5 5.2 7.0 Light rain. Mist.
2019-Dec-12 15:10 210 5 7.0 7.0 Light rain.
2019-Dec-12 15:05 210 7 5.2 7.0 Light rain. Mist.
2019-Dec-12 15:00 210 7 4.3 7.0 Light rain. Mist.
2019-Dec-12 14:55 220 7 7.0 7.0 Light rain.
2019-Dec-12 14:53 220 6 7.8 6.7 Light rain.
2019-Dec-12 14:50 220 5 8.7 7.0
2019-Dec-12 14:40 200 4 8.7 7.0 Light rain.
2019-Dec-12 14:30 160 7 8.7 7.0 Light rain.
2019-Dec-12 14:05 230 9 8.7 7.0
2019-Dec-12 13:55 230 6 4.3 7.0 Light rain. Mist.
2019-Dec-12 13:53 230 5 4.3 7.2 Light rain.
2019-Dec-12 13:50 230 4 5.2 7.0 Light rain.
2019-Dec-12 13:45 220 7 8.7 7.0 Light rain.
2019-Dec-12 13:40 220 5 8.7 7.0 Light rain.
2019-Dec-12 13:35 210 6 8.7 8.0 Light rain.
2019-Dec-12 13:30 200 5 8.7 8.0 Light rain.
2019-Dec-12 13:25 210 5 7.0 8.0 Light rain.
2019-Dec-12 13:20 200 4 7.8 8.0 Light rain.
2019-Dec-12 13:15 220 7 8.7 8.0
2019-Dec-12 13:10 220 4 8.7 8.0 Light rain.
2019-Dec-12 13:00 230 11 8.7 9.0 Light rain.
2019-Dec-12 12:55 220 9 8.7 8.0
2019-Dec-12 12:53 200 7 8.7 8.3
2019-Dec-12 12:50 200 8 8.7 7.0
2019-Dec-12 12:45 220 7 8.7 6.0
2019-Dec-12 12:40 8.7 6.0
2019-Dec-12 12:35 8.7 6.0
2019-Dec-12 12:30 140 3 8.7 6.0
2019-Dec-12 12:25 8.7 6.0
2019-Dec-12 12:20 8.7 6.0
2019-Dec-12 12:15 8.7 6.0
2019-Dec-12 12:10 8.7 7.0
2019-Dec-12 12:05 8.7 7.0
2019-Dec-12 11:55 190 5 8.7 7.0
2019-Dec-12 11:53 220 5 8.7 7.8
2019-Dec-12 11:50 200 6 8.7 8.0
2019-Dec-12 11:45 200 7 8.7 7.0
2019-Dec-12 11:40 200 5 8.7 7.0
2019-Dec-12 11:35 200 4 8.7 6.0
2019-Dec-12 11:30 160 4 8.7 6.0
2019-Dec-12 11:25 140 4 8.7 6.0
2019-Dec-12 11:20 8.7 6.0
2019-Dec-12 11:15 8.7 7.0
2019-Dec-12 11:05 150 3 8.7 7.0
2019-Dec-12 11:00 220 5 8.7 6.0
2019-Dec-12 10:55 190 3 8.7 6.0
2019-Dec-12 10:53 170 4 8.7 5.6
2019-Dec-12 10:50 150 5 8.7 6.0
2019-Dec-12 10:45 140 6 8.7 5.0
2019-Dec-12 10:40 110 4 8.7 5.0
2019-Dec-12 10:30 120 4 8.7 5.0
2019-Dec-12 10:20 100 3 8.7 5.0
2019-Dec-12 10:15 8.7 5.0
2019-Dec-12 10:10 180 3 8.7 5.0
2019-Dec-12 10:05 8.7 6.0
2019-Dec-12 10:00 130 4 8.7 5.0
2019-Dec-12 09:55 8.7 6.0
2019-Dec-12 09:53 200 4 8.7 6.1
2019-Dec-12 09:50 210 6 8.7 6.0
2019-Dec-12 09:45 290 3 7.8 6.0
2019-Dec-12 09:40 290 4 7.8 6.0
2019-Dec-12 09:35 260 4 8.7 7.0
2019-Dec-12 09:30 220 5 8.7 7.0 Light rain.
2019-Dec-12 09:25 190 4 8.7 7.0 Light rain.
2019-Dec-12 09:20 210 5 8.7 7.0 Light rain.
2019-Dec-12 09:15 230 5 8.7 7.0 Light rain.
2019-Dec-12 09:10 240 6 8.7 7.0 Light rain.
2019-Dec-12 09:00 240 5 8.7 7.0
2019-Dec-12 08:55 220 6 8.7 7.0
2019-Dec-12 08:53 230 6 8.7 6.7
2019-Dec-12 08:50 230 5 8.7 7.0
2019-Dec-12 08:45 220 6 8.7 7.0
2019-Dec-12 08:40 250 5 8.7 7.0
2019-Dec-12 08:35 250 8 8.7 7.0
2019-Dec-12 08:30 260 7 8.7 7.0
2019-Dec-12 08:25 250 7 8.7 7.0
2019-Dec-12 08:20 250 9 8.7 7.0 Light rain.
2019-Dec-12 08:15 220 9 8.7 7.0 Light rain.
2019-Dec-12 08:10 230 6 8.7 7.0 Light rain.
2019-Dec-12 08:05 250 8 7.8 7.0
2019-Dec-12 07:55 7.8 6.0
2019-Dec-12 07:53 7.8 6.1 Light rain.
2019-Dec-12 07:50 7.0 6.0 Light rain.
2019-Dec-12 07:45 4.3 6.0 Light rain. Mist.
2019-Dec-12 07:40 2.2 6.0 Light rain. Mist.
2019-Dec-12 07:35 2.6 6.0 Mist.
2019-Dec-12 07:25 160 3 3.5 6.0 Light rain. Mist.
2019-Dec-12 07:20 3.0 7.0 Rain. Mist.
2019-Dec-12 07:15 230 3 3.0 7.0 Light rain. Mist.
2019-Dec-12 07:05 280 3 3.5 6.0 Light rain. Mist.
2019-Dec-12 06:53 210 4 5.2 5.6 Light rain. Mist.
2019-Dec-12 06:35 210 5 4.3 5.0 Mist.
2019-Dec-12 06:30 190 3 4.3 5.0 Light rain. Mist.
2019-Dec-12 06:25 130 4 4.3 5.0 Light rain. Mist.
2019-Dec-12 06:20 180 3 4.3 5.0 Light rain. Mist.
2019-Dec-12 06:15 230 4 4.3 5.0 Light rain. Mist.
2019-Dec-12 06:10 230 3 4.3 5.0 Light rain. Mist.
2019-Dec-12 06:05 3.5 5.0 Light rain. Mist.
2019-Dec-12 06:00 4.3 5.0 Light rain. Mist.
2019-Dec-12 05:55 160 4 5.2 5.0 Light rain. Mist.
2019-Dec-12 05:53 170 2 5.2 5.0 Light rain. Mist.
2019-Dec-12 05:50 180 4 6.1 5.0 Light rain.
2019-Dec-12 05:45 6.1 6.0 Light rain.
2019-Dec-12 05:40 5.2 5.0 Light rain. Mist.
2019-Dec-12 05:35 5.2 5.0 Light rain. Mist.
2019-Dec-12 05:30 090 3 2.2 6.0 Mist.
2019-Dec-12 05:25 020 3 2.2 5.0 Mist.
2019-Dec-12 05:20 5.2 5.0 Mist.
2019-Dec-12 05:15 7.8 6.0
2019-Dec-12 05:12 150 2 7.8 5.6
2019-Dec-12 05:10 7.8 6.0
2019-Dec-12 04:55 6.1 5.0
2019-Dec-12 04:53 6.1 5.0
2019-Dec-12 04:50 6.1 5.0
2019-Dec-12 04:45 120 5 5.2 5.0 Mist.
2019-Dec-12 04:40 100 7 4.3 5.0 Mist.
2019-Dec-12 04:35 100 3 4.3 5.0 Mist.
2019-Dec-12 04:30 100 3 5.2 6.0 Mist.
2019-Dec-12 04:25 160 5 6.1 6.0
2019-Dec-12 04:20 170 4 5.2 6.0 Mist.
2019-Dec-12 04:19 180 5 5.2 5.6 Mist.
2019-Dec-12 04:15 140 3 5.2 6.0 Mist.
2019-Dec-12 04:10 7.0 6.0
2019-Dec-12 04:03 6.9 5.6
2019-Dec-12 04:00 7.0 6.0
2019-Dec-12 03:53 6.9 6.1
2019-Dec-12 03:50 7.0 6.0 Light rain.
2019-Dec-12 03:40 100 5 5.2 6.0 Light rain. Mist.
2019-Dec-12 03:30 040 4 5.2 6.0 Light rain. Mist.
2019-Dec-12 03:20 160 3 6.1 6.0
2019-Dec-12 03:00 200 5 7.0 6.0
2019-Dec-12 02:55 7.8 6.0
2019-Dec-12 02:53 6.9 5.6
2019-Dec-12 02:51 6.9 6.0
2019-Dec-12 02:50 7.0 6.0
2019-Dec-12 02:45 7.8 6.0
2019-Dec-12 02:40 090 5 8.7 6.0
2019-Dec-12 02:30 060 3 7.8 6.0
2019-Dec-12 02:25 110 3 5.2 6.0 Mist.
2019-Dec-12 02:20 090 3 4.3 6.0 Light rain. Mist.
2019-Dec-12 02:15 5.2 6.0 Light rain. Mist.
2019-Dec-12 02:10 5.2 6.0 Light rain. Mist.
2019-Dec-12 02:05 5.2 6.0 Mist.
2019-Dec-12 02:00 5.2 6.0 Mist.
2019-Dec-12 01:55 200 3 4.3 6.0 Mist.
2019-Dec-12 01:53 4.3 5.6 Mist.
2019-Dec-12 01:45 240 3 6.1 6.0 Light rain.
2019-Dec-12 01:35 6.1 6.0 Light rain.
2019-Dec-12 01:15 100 3 4.3 6.0 Light rain. Mist.
2019-Dec-12 01:10 4.3 6.0 Light rain. Mist.
2019-Dec-12 01:05 5.2 6.0 Light rain. Mist.
2019-Dec-12 01:00 7.0 6.0 Light rain.
2019-Dec-12 00:55 7.8 6.0 Light rain.
2019-Dec-12 00:53 7.8 6.1 Light rain.
2019-Dec-12 00:45 160 3 7.8 6.0
2019-Dec-12 00:40 8.7 6.0
2019-Dec-12 00:35 8.7 6.0
2019-Dec-12 00:30 8.7 6.0
2019-Dec-12 00:25 8.7 6.0
2019-Dec-12 00:20 8.7 6.0
2019-Dec-12 00:15 220 3 8.7 7.0 Light rain.
2019-Dec-12 00:05 190 3 7.8 7.0 Light rain.
2019-Dec-12 00:00 6.1 7.0 Light rain.
2019-Dec-11 23:55 7.0 7.0 Light rain.
2019-Dec-11 23:53 6.9 6.7 Light rain.
2019-Dec-11 23:50 220 3 7.8 7.0 Light rain.
2019-Dec-11 23:46 230 4 8.7 6.7 Light rain.
2019-Dec-11 23:45 230 4 8.7 7.0 Light rain.
2019-Dec-11 23:40 220 3 8.7 7.0
2019-Dec-11 23:35 230 3 8.7 7.0
2019-Dec-11 23:30 230 4 8.7 7.0
2019-Dec-11 23:25 8.7 7.0
2019-Dec-11 23:20 8.7 7.0
2019-Dec-11 23:15 280 3 8.7 7.0
2019-Dec-11 23:00 270 3 8.7 7.0
2019-Dec-11 22:55 270 4 8.7 7.0
2019-Dec-11 22:53 250 5 8.7 7.2
2019-Dec-11 22:50 250 5 8.7 7.0
2019-Dec-11 22:45 240 3 8.7 7.0
2019-Dec-11 22:44 240 2 8.7 7.2
2019-Dec-11 22:40 220 3 8.7 7.0
2019-Dec-11 22:35 220 4 8.7 7.0
2019-Dec-11 22:30 200 3 8.7 7.0
2019-Dec-11 22:20 240 3 8.7 7.0 Light rain.
2019-Dec-11 22:15 250 5 8.7 7.0 Light rain.
2019-Dec-11 22:10 260 7 8.7 7.0
2019-Dec-11 22:05 260 7 8.7 7.0
2019-Dec-11 22:00 250 8 8.7 7.0
2019-Dec-11 21:55 250 7 8.7 7.0
2019-Dec-11 21:53 250 6 8.7 7.2
2019-Dec-11 21:45 250 7 8.7 7.0
2019-Dec-11 21:40 240 6 8.7 7.0 Light rain.
2019-Dec-11 21:35 230 6 8.7 7.0 Light rain.
2019-Dec-11 21:30 230 6 8.7 7.0 Light rain.
2019-Dec-11 21:20 220 5 8.7 7.0
2019-Dec-11 21:15 240 5 8.7 7.0
2019-Dec-11 21:10 230 5 8.7 7.0
2019-Dec-11 21:05 240 5 8.7 7.0
2019-Dec-11 21:00 230 4 8.7 7.0
2019-Dec-11 20:53 200 4 8.7 6.7
2019-Dec-11 20:50 210 5 8.7 7.0
2019-Dec-11 20:45 210 4 8.7 7.0
2019-Dec-11 20:40 220 6 8.7 7.0
2019-Dec-11 20:35 230 6 8.7 7.0
2019-Dec-11 20:30 230 6 8.7 7.0
2019-Dec-11 20:25 230 5 8.7 7.0
2019-Dec-11 20:21 210 4 8.7 6.7
2019-Dec-11 20:20 200 4 8.7 7.0
2019-Dec-11 20:05 250 4 8.7 6.0
2019-Dec-11 20:00 240 3 8.7 6.0
2019-Dec-11 19:55 8.7 6.0
2019-Dec-11 19:53 8.7 6.1
2019-Dec-11 19:50 8.7 6.0
2019-Dec-11 19:45 8.7 6.0
2019-Dec-11 19:40 8.7 7.0
2019-Dec-11 19:35 8.7 6.0
2019-Dec-11 19:25 8.7
2019-Dec-11 19:20 8.7
2019-Dec-11 19:10 8.7 7.0
2019-Dec-11 19:00 8.7 7.0
2019-Dec-11 18:55 8.7 7.0
2019-Dec-11 18:53 8.7 6.7
2019-Dec-11 18:50 8.7 6.0
2019-Dec-11 18:45 6.1 6.0
2019-Dec-11 18:44 3.5 6.1 Mist.
2019-Dec-11 18:40 0.7 6.0 Mist.
2019-Dec-11 18:35 0.7 6.0 Mist.
2019-Dec-11 18:34 0.7 6.1 Mist.
2019-Dec-11 18:30 8.7 6.0
2019-Dec-11 18:20 200 3 8.7 6.0
2019-Dec-11 18:15 190 3 8.7 6.0
2019-Dec-11 18:10 8.7 7.0
2019-Dec-11 18:05 090 4 8.7 7.0
2019-Dec-11 18:00 110 3 8.7 7.0
2019-Dec-11 17:55 8.7 6.0
2019-Dec-11 17:53 8.7 6.1
2019-Dec-11 17:45 180 3 8.7 6.0
2019-Dec-11 17:40 190 3 8.7 6.0
2019-Dec-11 17:35 190 3 8.7 6.0
2019-Dec-11 17:30 230 3 8.7 6.0
2019-Dec-11 17:25 220 5 8.7 6.0
2019-Dec-11 17:20 190 4 8.7 6.0
2019-Dec-11 17:15 190 4 8.7 6.0
2019-Dec-11 17:05 140 3 7.8 6.0
2019-Dec-11 17:00 110 3 8.7 6.0
2019-Dec-11 16:55 120 3 8.7 6.0
2019-Dec-11 16:53 120 4 8.7 6.1
2019-Dec-11 16:50 120 4 8.7 6.0
2019-Dec-11 16:45 8.7 6.0
2019-Dec-11 16:35 8.7 6.0
2019-Dec-11 16:25 190 4 8.7 5.0
2019-Dec-11 16:20 200 4 8.7 5.0
2019-Dec-11 16:15 210 4 8.7 4.0
2019-Dec-11 16:10 220 4 8.7 4.0
2019-Dec-11 16:05 210 3 8.7 4.0
2019-Dec-11 16:00 190 3 8.7 4.0
2019-Dec-11 15:55 8.7 5.0
2019-Dec-11 15:53 8.7 5.0
2019-Dec-11 15:50 8.7 4.0
2019-Dec-11 15:45 210 3 8.7 4.0
2019-Dec-11 15:40 230 4 8.7 4.0
2019-Dec-11 15:35 8.7 4.0
2019-Dec-11 15:30 8.7 4.0
2019-Dec-11 15:25 8.7 4.0
2019-Dec-11 15:15 230 4 8.7 5.0
2019-Dec-11 15:10 230 5 8.7 5.0
2019-Dec-11 15:05 8.7 5.0
2019-Dec-11 15:00 210 4 8.7 5.0
2019-Dec-11 14:55 220 4 8.7 5.0
2019-Dec-11 14:53 210 2 8.7 5.0
2019-Dec-11 14:45 190 3 8.7 5.0
2019-Dec-11 14:40 210 4 8.7 5.0
2019-Dec-11 14:30 230 5 8.7 4.0
2019-Dec-11 14:25 230 5 8.7 4.0
2019-Dec-11 14:15 210 4 8.7 5.0
2019-Dec-11 14:05 200 3 8.7 4.0
2019-Dec-11 13:55 8.7 4.0
2019-Dec-11 13:53 8.7 4.4
2019-Dec-11 13:50 200 3 8.7 4.0
2019-Dec-11 13:45 200 4 8.7 4.0
2019-Dec-11 13:40 200 4 8.7 4.0
2019-Dec-11 13:30 190 4 8.7 4.0
2019-Dec-11 13:25 190 3 8.7 4.0
2019-Dec-11 13:20 200 3 8.7 4.0
2019-Dec-11 13:15 190 4 8.7 4.0
2019-Dec-11 13:10 190 4 8.7 4.0
2019-Dec-11 13:05 170 3 8.7 4.0
2019-Dec-11 13:00 8.7 4.0
2019-Dec-11 12:55 8.7 4.0
2019-Dec-11 12:53 8.7 4.4
2019-Dec-11 12:40 200 4 8.7 4.0
2019-Dec-11 12:35 210 5 8.7 4.0
2019-Dec-11 12:30 210 6 8.7 4.0
2019-Dec-11 12:25 220 5 8.7 4.0
2019-Dec-11 12:20 210 4 8.7 4.0
2019-Dec-11 12:16 210 5 8.7 3.9
2019-Dec-11 12:15 210 5 8.7 4.0
2019-Dec-11 12:10 220 6 8.7 4.0
2019-Dec-11 12:05 210 6 8.7 4.0
2019-Dec-11 12:00 210 5 8.7 4.0
2019-Dec-11 11:55 210 5 8.7 4.0
2019-Dec-11 11:53 210 5 8.7 3.9
2019-Dec-11 11:50 200 5 8.7 4.0
2019-Dec-11 11:45 190 5 8.7 4.0
2019-Dec-11 11:40 190 4 8.7 3.0
2019-Dec-11 11:35 190 4 8.7 3.0
2019-Dec-11 11:30 180 4 8.7 3.0
2019-Dec-11 11:20 170 4 8.7 2.0
2019-Dec-11 11:15 170 3 8.7 2.0
2019-Dec-11 11:10 160 3 8.7 2.0
2019-Dec-11 11:05 130 3 8.7 2.0
2019-Dec-11 10:53 8.7 1.7
2019-Dec-11 10:35 8.7 1.0
2019-Dec-11 10:31 200 2 8.7 0.6
2019-Dec-11 10:30 200 3 8.7 1.0
2019-Dec-11 10:20 8.7 1.0
2019-Dec-11 10:15 6.1 1.0
2019-Dec-11 10:10 6.1 1.0
2019-Dec-11 10:05 8.7 1.0
2019-Dec-11 10:00 8.7 1.0
2019-Dec-11 09:55 7.8 1.0
2019-Dec-11 09:53 6.9 1.1
2019-Dec-11 09:50 5.2 1.0 Mist.
2019-Dec-11 09:45 5.2 1.0 Mist.
2019-Dec-11 09:40 7.8 1.0
2019-Dec-11 09:35 8.7 1.0
2019-Dec-11 09:30 7.8 2.0
2019-Dec-11 09:25 6.1 2.0
2019-Dec-11 09:20 3.5 2.0 Mist.
2019-Dec-11 09:15 2.2 1.0 Mist.
2019-Dec-11 09:10 3.5 1.0 Mist.
2019-Dec-11 09:05 190 3 4.3 1.0 Mist.
2019-Dec-11 09:04 3.5 1.7 Mist.
2019-Dec-11 09:00 150 3 1.5 3.0 Mist.
2019-Dec-11 08:55 1.3 2.0 Mist.
2019-Dec-11 08:53 2.2 2.2 Mist.
2019-Dec-11 08:50 3.5 2.0 Mist.
2019-Dec-11 08:45 8.7 3.0
2019-Dec-11 08:40 140 3 8.7 3.0
2019-Dec-11 08:35 8.7 4.0
2019-Dec-11 08:30 8.7 4.0
2019-Dec-11 08:25 8.7 4.0
2019-Dec-11 08:20 8.7 4.0
2019-Dec-11 08:10 230 3 8.7 4.0
2019-Dec-11 08:00 220 3 8.7 4.0
2019-Dec-11 07:53 210 2 8.7 4.4
2019-Dec-11 07:50 220 4 8.7 4.0
2019-Dec-11 07:45 230 4 8.7 4.0
2019-Dec-11 07:40 230 4 8.7 4.0
2019-Dec-11 07:35 210 3 8.7 4.0
2019-Dec-11 07:30 8.7 4.0
2019-Dec-11 07:25 190 3 8.7 4.0
2019-Dec-11 07:23 190 2 8.7 4.4
2019-Dec-11 07:20 210 4 8.7 4.0
2019-Dec-11 07:15 210 5 7.8 4.0
2019-Dec-11 07:05 210 3 7.0 4.0
2019-Dec-11 06:55 6.1 5.0
2019-Dec-11 06:53 6.1 5.0
2019-Dec-11 06:50 6.1 5.0
2019-Dec-11 06:45 6.1 5.0
2019-Dec-11 06:40 160 3 5.2 5.0 Mist.
2019-Dec-11 06:35 160 3 6.1 5.0
2019-Dec-11 06:30 180 4 5.2 5.0 Mist.
2019-Dec-11 06:25 180 4 5.2 5.0 Mist.
2019-Dec-11 06:15 150 3 6.1 5.0
2019-Dec-11 06:10 130 4 6.1 5.0
2019-Dec-11 06:05 120 5 6.1 5.0
2019-Dec-11 06:00 130 4 7.0 5.0
2019-Dec-11 05:55 140 4 7.0 5.0
2019-Dec-11 05:53 140 4 6.1 5.0
2019-Dec-11 05:50 150 5 6.1 5.0
2019-Dec-11 05:45 150 4 6.1 5.0
2019-Dec-11 05:40 150 4 6.1 5.0
2019-Dec-11 05:35 150 3 6.1 5.0
2019-Dec-11 05:30 7.0 6.0
2019-Dec-11 05:25 120 3 7.0 6.0
2019-Dec-11 05:20 120 3 7.8 6.0
2019-Dec-11 05:15 150 3 8.7 6.0
2019-Dec-11 05:05 8.7 6.0
2019-Dec-11 04:55 120 4 8.7 6.0
2019-Dec-11 04:53 130 4 7.8 5.6
2019-Dec-11 04:50 140 4 7.8 6.0
2019-Dec-11 04:40 150 3 7.8 6.0
2019-Dec-11 04:30 8.7 6.0
2019-Dec-11 04:25 8.7 6.0
2019-Dec-11 04:20 8.7 6.0
2019-Dec-11 04:15 8.7 6.0
2019-Dec-11 04:10 140 3 7.8 6.0
2019-Dec-11 04:00 8.7 6.0
2019-Dec-11 03:55 7.8 6.0
2019-Dec-11 03:53 7.8 5.6
2019-Dec-11 03:50 7.8 6.0
2019-Dec-11 03:35 7.8 6.0
2019-Dec-11 03:25 7.8 6.0
2019-Dec-11 03:10 7.8 6.0
2019-Dec-11 03:05 7.0 6.0
2019-Dec-11 02:55 7.0 6.0
2019-Dec-11 02:53 6.9 5.6
2019-Dec-11 02:50 090 4 7.0 6.0
2019-Dec-11 02:45 7.8 6.0
2019-Dec-11 02:40 7.8 6.0
2019-Dec-11 02:35 8.7 6.0
2019-Dec-11 02:25 8.7 6.0
2019-Dec-11 02:10 8.7 6.0
2019-Dec-11 02:05 8.7 6.0
2019-Dec-11 02:00 8.7 6.0
2019-Dec-11 01:55 8.7 6.0
2019-Dec-11 01:53 8.7 5.6
2019-Dec-11 01:45 8.7 6.0
2019-Dec-11 01:40 8.7 6.0
2019-Dec-11 01:35 8.7 6.0
2019-Dec-11 01:30 8.7 6.0
2019-Dec-11 01:20 8.7 6.0
2019-Dec-11 01:16 8.7 6.1
2019-Dec-11 01:10 080 3 8.7 6.0
2019-Dec-11 01:05 8.7 6.0
2019-Dec-11 00:55 8.7 6.0
2019-Dec-11 00:53 8.7 6.1
2019-Dec-11 00:50 8.7 6.0
2019-Dec-11 00:35 8.7 6.0
2019-Dec-11 00:31 8.7 6.1
2019-Dec-11 00:30 8.7 6.0
2019-Dec-11 00:20 8.7 6.0 Light rain.
2019-Dec-11 00:10 8.7 6.0 Light rain.
2019-Dec-11 00:05 8.7 6.0
2019-Dec-11 00:00 8.7 6.0
2019-Dec-10 23:55 8.7 6.0
2019-Dec-10 23:53 8.7 6.1
2019-Dec-10 23:30 8.7 7.0
2019-Dec-10 23:25 040 3 8.7 7.0
2019-Dec-10 23:20 050 3 8.7 7.0
2019-Dec-10 23:15 050 3 8.7 7.0
2019-Dec-10 23:05 030 3 8.7 7.0
2019-Dec-10 23:00 8.7 7.0
2019-Dec-10 22:55 8.7 7.0
2019-Dec-10 22:53 060 2 8.7 6.7
2019-Dec-10 22:50 060 3 8.7 7.0
2019-Dec-10 22:45 070 3 8.7 7.0
2019-Dec-10 22:40 8.7 7.0
2019-Dec-10 22:35 8.7 7.0
2019-Dec-10 22:30 8.7 7.0
2019-Dec-10 22:25 8.7 7.0
2019-Dec-10 22:20 060 3 8.7 7.0
2019-Dec-10 22:10 8.7 7.0
2019-Dec-10 22:05 8.7 7.0
2019-Dec-10 22:00 8.7 7.0
2019-Dec-10 21:55 8.7 7.0
2019-Dec-10 21:53 080 2 8.7 6.7
2019-Dec-10 21:35 8.7 7.0
2019-Dec-10 21:25 8.7 7.0
2019-Dec-10 21:20 8.7 7.0
2019-Dec-10 21:15 330 3 8.7 7.0
2019-Dec-10 21:10 8.7 7.0
2019-Dec-10 21:05 8.7 7.0
2019-Dec-10 21:00 020 3 8.7 7.0
2019-Dec-10 20:55 050 3 8.7 7.0
2019-Dec-10 20:53 8.7 6.7
2019-Dec-10 20:45 8.7 7.0
2019-Dec-10 20:35 8.7 7.0
2019-Dec-10 20:30 8.7 7.0
2019-Dec-10 20:20 8.7 7.0
2019-Dec-10 20:19 8.7 6.7
2019-Dec-10 20:15 070 3 8.7 7.0
2019-Dec-10 20:10 080 3 8.7 7.0
2019-Dec-10 20:05 080 3 8.7 7.0
2019-Dec-10 20:01 100 2 8.7 6.7
2019-Dec-10 20:00 100 3 8.7 7.0
2019-Dec-10 19:55 8.7 7.0
2019-Dec-10 19:53 110 2 8.7 6.7
2019-Dec-10 19:50 8.7 7.0
2019-Dec-10 19:45 8.7 7.0
2019-Dec-10 19:40 120 3 8.7 7.0
2019-Dec-10 19:38 120 4 8.7 6.7
2019-Dec-10 19:35 130 4 8.7 7.0
2019-Dec-10 19:30 140 3 8.7 7.0
2019-Dec-10 19:16 140 2 8.7 6.7
2019-Dec-10 19:15 140 3 8.7 6.0
2019-Dec-10 19:05 120 3 8.7 6.0
2019-Dec-10 19:00 8.7 6.0
2019-Dec-10 18:55 120 3 8.7 6.0
2019-Dec-10 18:53 120 2 8.7 6.1
2019-Dec-10 18:50 100 3 8.7 6.0
2019-Dec-10 18:45 120 3 8.7 6.0 Light rain.
2019-Dec-10 18:40 7.8 6.0 Light rain.
2019-Dec-10 18:38 7.8 6.1 Light rain.
2019-Dec-10 18:35 7.8 6.0 Light rain.
2019-Dec-10 18:30 8.7 6.0 Light rain.
2019-Dec-10 18:25 8.7 6.0 Light rain.
2019-Dec-10 18:22 8.7 5.6 Light rain.
2019-Dec-10 18:20 8.7 5.0 Light rain.
2019-Dec-10 18:15 8.7 5.0 Light rain.
2019-Dec-10 18:10 8.7 5.0 Light rain.
2019-Dec-10 18:05 220 3 8.7 5.0
2019-Dec-10 18:00 220 3 8.7 5.0